Theta_e
301 301 301 300 301 302 302 302 302 304 305 306 305 305 305 306 305 309 309 305 306 306 305 307 303 309 312 308 315 316 319 318 317 315 315 313 315 315 317 319 319 320 320 326 322
301 301 301 300 301 302 302 302 304 306 307 306 305 306 307 306 306 312 309 309 309 311 311 311 309 309 314 311 311 318 319 319 318 316 315 315 314 314 315 316 317 318 319 319 324
301 301 301 301 301 302 302 304 306 307 307 306 305 307 307 306 307 309 307 308 307 307 307 306 309 310 311 312 310 314 318 318 317 317 315 316 314 314 315 316 317 318 318 318 320
301 301 301 301 302 302 303 306 307 307 306 306 305 307 307 306 306 307 308 308 308 308 308 307 311 312 311 311 312 312 312 315 317 317 317 317 316 316 315 316 316 316 317 317 320
301 301 301 301 303 303 304 306 306 306 306 306 306 307 308 307 307 308 308 309 309 309 309 308 313 313 312 312 311 313 313 311 313 315 317 318 318 318 318 318 317 317 318 319 320
301 301 301 302 303 303 305 307 306 306 306 306 306 307 308 309 310 310 310 310 310 310 310 309 311 312 311 310 311 312 312 313 313 313 313 316 318 318 318 319 319 320 320 320 321
302 301 301 302 303 304 306 306 306 306 307 306 307 307 308 309 310 309 309 310 311 311 310 310 309 312 310 311 310 312 313 313 313 313 314 313 314 315 316 319 320 321 321 321 322
306 302 301 302 303 304 306 305 306 307 307 306 308 308 308 309 309 309 309 310 311 311 311 310 309 310 312 312 312 313 313 313 312 313 313 313 314 314 314 315 317 318 319 321 321
308 304 302 302 304 305 305 306 308 308 307 307 308 308 309 309 309 309 309 310 311 311 311 309 309 309 308 311 312 312 311 313 314 313 313 314 314 315 313 315 316 317 318 319 320
310 304 303 303 304 305 306 308 308 308 308 308 309 310 309 309 309 309 309 309 311 311 310 310 310 311 309 311 311 309 312 313 314 314 313 314 314 315 316 316 317 318 318 319 319
312 306 303 304 306 305 307 308 308 308 307 308 309 308 309 309 309 309 309 310 311 311 312 310 312 312 311 310 310 309 309 311 313 315 313 314 314 315 315 316 317 317 317 319 319
312 306 303 305 307 307 308 308 307 308 308 308 308 308 309 309 308 309 309 311 311 313 312 312 313 312 312 311 311 311 311 310 311 313 314 315 315 315 317 316 316 317 318 318 320
311 305 304 306 307 307 308 308 308 308 309 309 309 308 308 309 309 309 310 310 312 313 313 313 313 312 312 312 312 312 311 310 310 312 313 314 315 315 317 318 318 316 317 319 319
311 306 306 308 308 308 308 308 309 308 311 310 308 309 309 309 310 309 309 311 312 312 312 313 313 312 313 313 311 312 310 309 311 312 311 313 314 317 317 319 319 318 318 318 320
311 303 308 308 309 309 308 308 308 309 312 309 309 309 309 309 309 310 310 311 312 312 312 314 313 313 313 313 311 311 310 310 310 312 312 312 314 315 318 318 318 320 318 319 320
311 304 309 309 308 307 308 308 309 311 310 310 309 309 309 309 310 310 310 310 312 313 313 313 312 313 312 311 311 311 310 310 310 310 316 312 313 314 318 318 318 319 319 319 319
310 303 306 306 306 307 308 308 311 310 309 310 310 310 309 310 310 311 311 312 313 314 313 312 313 313 312 313 311 312 313 314 313 312 313 313 314 313 317 318 319 319 319 319 319
309 303 307 306 304 305 308 309 309 309 310 310 310 308 311 311 311 311 311 312 312 313 313 312 314 315 314 313 312 313 313 312 311 310 309 312 315 313 314 317 317 317 318 319 319
308 305 307 306 302 307 308 310 310 310 309 309 308 310 311 310 311 311 311 311 312 312 315 313 313 312 313 313 311 313 313 311 311 309 309 311 312 314 315 315 318 318 319 319 319
306 307 307 301 304 308 309 309 309 308 308 308 309 310 311 310 311 312 310 311 313 312 311 313 315 312 314 314 314 313 312 314 313 313 312 311 310 311 314 315 317 319 320 319 319
304 304 304 301 303 305 309 307 306 307 307 307 308 309 310 311 312 310 310 311 311 312 309 308 313 313 312 314 315 314 314 313 314 316 313 312 312 312 315 318 317 318 319 319 317
301 304 302 301 303 302 304 304 304 307 306 306 308 309 310 310 313 310 310 311 311 310 311 311 313 314 312 312 314 313 313 314 314 316 315 316 317 319 314 318 323 319 319 320 316
299 300 301 300 304 303 302 303 304 306 305 306 307 308 308 309 311 310 310 310 310 310 309 309 314 315 314 315 312 316 314 314 315 316 315 317 321 327 329 322 324 326 326 319 325
299 303 300 300 300 302 301 304 305 304 304 305 305 306 309 309 308 311 310 309 309 309 310 309 311 313 315 316 316 317 317 315 315 317 315 317 320 325 330 328 331 332 327 330 333
298 301 299 302 302 301 301 302 304 304 304 304 307 308 308 308 308 310 309 309 308 309 310 306 314 313 313 313 313 316 315 317 316 316 316 314 315 323 325 328 333 330 332 334 335
298 299 299 300 300 301 301 303 303 303 302 306 306 307 307 307 307 308 308 308 310 309 306 306 314 314 314 313 315 317 314 314 315 314 315 316 316 321 323 325 334 334 334 333 331
297 297 298 300 301 302 302 302 302 302 303 303 305 305 307 309 307 306 306 306 306 305 306 307 311 313 315 317 316 315 316 314 316 315 317 319 320 320 323 326 331 333 331 329 326
Wind_Speed
23 22 22 21 21 21 19 16 14 12 12 14 16 18 18 19 20 13 8 4 2 4 7 7 8 8 8 13 12 13 9 17 21 18 14 9 12 19 11 17 14 14 34 7 9
25 23 24 24 23 21 15 12 10 10 11 14 17 17 18 17 10 12 12 11 5 11 12 13 8 4 5 6 12 13 14 22 7 15 13 19 11 9 9 16 23 19 18 14 5
27 27 27 26 24 18 13 11 10 11 13 17 18 18 20 14 5 4 9 10 9 12 13 10 7 3 9 5 13 14 21 17 10 19 18 20 14 12 14 16 14 19 18 9 7
31 30 30 29 24 16 12 10 11 12 15 18 17 16 15 8 3 5 7 9 7 8 10 7 3 6 5 12 10 13 18 24 11 23 10 16 13 11 24 24 12 20 16 16 15
33 33 32 30 23 15 10 10 11 14 18 18 14 14 11 2 2 3 4 8 9 7 6 3 5 6 8 6 12 20 17 17 19 31 20 22 21 16 18 18 23 25 26 23 21
35 35 34 30 22 14 7 10 13 16 19 15 13 14 8 1 7 9 9 10 10 10 7 6 6 8 6 7 12 9 12 19 29 23 14 22 25 22 15 26 26 25 27 27 23
36 36 35 32 21 13 7 11 14 19 18 12 9 13 7 4 7 13 13 13 11 11 12 11 7 10 5 7 11 8 12 15 19 18 19 16 23 31 25 23 16 18 19 19 20
38 36 36 32 19 14 10 13 19 18 16 7 11 12 7 6 7 18 17 15 10 12 13 11 9 12 12 9 8 8 9 12 9 18 13 19 33 9 23 32 37 37 35 28 26
41 38 37 31 17 16 10 14 16 18 6 7 12 6 7 3 8 16 19 15 13 13 11 7 5 7 5 11 11 10 14 13 11 12 17 21 21 14 21 19 28 29 32 32 30
43 40 38 28 14 14 8 16 12 11 6 12 6 5 5 7 14 20 20 14 13 9 3 8 6 7 7 9 15 14 16 13 11 3 16 22 22 11 8 5 21 20 22 24 26
42 41 38 23 12 7 8 11 10 4 9 13 15 11 20 10 12 22 19 11 9 6 8 6 8 14 20 20 19 18 17 18 10 9 8 13 16 18 21 22 20 16 22 19 19
42 42 36 15 10 5 8 6 7 11 13 21 22 20 19 16 11 24 6 4 6 13 7 6 17 19 18 19 20 20 20 21 18 17 12 15 14 14 13 17 26 24 20 22 23
42 41 31 10 7 6 9 7 12 15 6 10 3 5 2 6 20 16 5 9 10 15 15 16 17 7 11 18 19 21 21 19 17 14 17 16 23 20 17 19 23 26 25 23 21
42 40 26 7 3 9 6 12 18 11 3 4 3 1 2 22 6 10 17 7 4 12 11 13 13 12 16 18 20 21 17 17 16 14 15 8 8 9 16 17 18 22 25 27 20
42 36 19 3 7 9 14 19 10 2 5 9 3 3 23 5 19 3 4 5 15 15 8 8 10 13 13 19 17 17 13 16 17 14 14 16 8 14 9 19 21 20 28 29 22
39 29 14 8 11 16 19 13 1 2 4 6 7 17 22 25 3 7 6 8 8 7 9 21 15 10 15 6 12 8 9 15 14 12 12 18 16 11 13 19 22 22 23 25 22
41 20 9 12 16 16 15 3 3 2 9 5 11 15 24 6 12 9 13 12 6 4 3 11 7 6 13 8 4 13 9 5 8 8 10 13 13 19 11 11 10 18 20 22 21
42 17 7 17 20 16 8 0 2 3 4 13 13 21 5 10 9 10 11 14 7 7 4 4 2 7 10 13 6 18 14 5 7 9 15 12 11 17 26 21 12 8 21 22 24
38 7 7 19 18 10 3 2 3 4 7 10 19 5 5 7 9 11 14 9 3 5 3 3 5 3 7 8 13 9 13 14 6 11 10 11 23 14 12 17 14 17 14 23 28
32 4 11 21 13 7 3 3 3 5 9 8 6 3 14 18 12 8 9 4 4 5 7 3 7 4 4 3 11 10 11 6 5 5 11 12 25 15 14 20 20 14 13 21 25
22 4 14 21 8 10 3 3 5 6 9 6 6 7 10 10 4 12 6 10 3 3 3 3 6 2 2 6 12 8 12 8 6 6 8 10 9 18 16 6 20 19 19 13 20
15 2 17 20 7 3 3 8 7 6 10 5 8 10 9 12 7 8 7 7 2 4 4 6 4 5 9 1 8 15 15 15 6 12 6 8 3 2 21 14 9 16 21 9 18
14 6 10 16 4 4 7 4 4 6 12 5 6 5 10 7 8 9 13 5 8 6 4 2 3 4 3 4 7 5 12 17 11 4 12 8 1 7 5 12 11 11 10 14 24
9 5 6 10 5 3 6 4 7 13 11 7 12 11 9 9 14 9 17 9 7 12 18 10 6 11 11 2 2 3 12 20 19 8 10 9 12 9 7 8 7 6 12 23 30
10 3 3 5 4 9 4 3 7 10 6 10 5 8 16 7 18 9 17 22 14 14 2 2 5 10 18 18 12 9 4 16 18 18 8 3 13 11 13 10 4 12 24 29 31
6 6 5 6 8 9 3 3 7 12 5 8 7 21 22 11 17 26 19 22 6 2 2 2 3 2 7 13 14 10 11 10 17 16 10 9 11 6 14 18 11 22 28 31 32
10 7 3 4 5 4 2 6 9 15 8 17 19 18 21 18 28 38 34 27 11 5 2 2 3 2 3 7 8 7 15 14 11 13 10 8 3 7 6 9 9 22 26 28 34
Wind_Direction
3 356 351 346 342 339 336 333 336 340 346 348 343 340 339 333 332 350 11 29 92 331 4 344 283 239 219 214 202 193 229 236 225 223 218 200 211 212 219 219 211 226 242 245 319
359 354 351 346 340 339 338 337 341 345 344 343 341 344 343 333 352 49 42 71 55 346 340 354 356 229 211 218 209 205 227 235 240 227 226 223 199 177 204 218 227 228 240 219 265
359 355 352 346 341 340 338 338 342 342 339 338 343 350 352 350 91 47 4 3 1 351 339 311 309 223 233 241 216 225 240 234 230 234 238 246 230 230 238 237 210 222 224 232 266
359 355 351 348 344 344 338 332 337 337 335 335 338 351 354 27 45 357 355 6 8 358 355 326 215 178 221 233 237 258 251 252 257 237 238 245 243 225 232 234 229 245 252 253 269
358 354 351 347 345 342 336 322 328 328 325 328 332 346 357 45 92 20 343 329 319 320 336 330 218 231 230 215 255 249 259 272 252 250 247 251 248 250 246 237 240 251 262 264 265
358 353 350 347 343 340 329 314 317 319 320 319 328 335 338 263 35 14 345 329 310 305 291 265 228 242 263 246 229 271 280 268 258 256 251 252 259 246 245 244 241 249 254 261 262
356 352 349 346 340 338 322 308 314 314 318 309 317 317 293 215 15 360 342 333 313 307 291 275 246 202 212 249 253 272 280 279 250 248 241 246 263 239 242 246 244 230 240 248 250
354 351 348 344 337 333 318 309 313 309 307 285 317 303 259 213 340 0 339 329 312 308 301 269 245 223 228 247 280 269 263 262 249 224 238 204 251 243 233 223 239 246 251 253 255
353 351 346 342 331 330 319 316 320 318 293 280 313 275 266 239 307 336 340 324 312 302 295 237 201 216 173 229 258 244 259 255 278 245 216 213 249 248 243 222 233 235 238 243 252
351 349 345 340 330 332 332 334 320 316 300 319 293 280 236 306 304 311 317 304 306 279 236 183 204 224 217 207 242 245 239 242 253 23 224 231 241 239 228 254 232 230 233 235 240
350 347 345 338 334 342 345 346 345 321 308 266 267 262 282 296 293 309 306 291 280 229 255 205 226 237 238 229 246 258 256 252 224 228 313 251 256 250 256 262 253 240 236 234 237
351 346 346 339 333 346 341 347 335 307 297 290 278 261 262 276 299 315 311 243 259 250 270 246 250 257 259 241 239 244 249 250 256 265 263 274 270 267 251 250 246 244 242 236 239
352 347 347 344 339 328 339 328 332 316 289 301 288 264 283 328 309 296 323 293 261 264 264 262 259 266 239 234 233 235 237 241 242 242 261 271 280 256 241 238 245 238 239 240 231
353 348 346 355 16 343 348 332 329 310 299 293 336 17 62 334 293 303 293 238 248 276 275 270 260 249 250 238 223 236 231 237 242 234 244 230 271 213 218 218 225 231 229 232 226
353 347 345 338 351 348 330 323 332 96 303 349 318 310 331 322 300 316 318 272 282 271 262 263 278 271 252 236 223 244 232 224 231 250 249 235 251 254 254 214 217 218 221 225 223
352 348 351 355 345 329 328 335 109 251 270 335 330 332 333 333 304 296 287 287 269 272 248 260 273 263 237 249 230 241 238 222 227 230 248 230 225 237 222 215 216 219 215 220 220
351 351 17 14 351 344 331 340 301 232 342 344 328 331 323 307 327 332 313 301 280 280 297 310 240 224 226 246 202 179 178 187 207 213 244 205 221 236 203 236 254 222 206 211 214
351 350 18 8 346 341 339 249 261 29 344 322 321 315 295 346 326 318 305 312 248 219 291 306 292 200 191 215 203 197 193 200 201 199 224 220 228 231 232 246 269 305 215 203 208
352 15 6 349 344 347 345 8 335 360 344 323 319 301 314 311 320 314 319 299 269 164 252 281 252 245 249 256 221 183 211 220 303 233 221 211 238 264 247 233 241 242 227 204 203
354 53 9 353 355 355 58 341 307 343 339 328 292 291 315 321 323 342 310 292 303 220 225 302 279 249 55 210 244 233 173 183 217 223 225 205 235 223 195 218 227 235 227 203 196
357 22 355 353 7 40 60 314 300 317 4 322 290 293 298 315 262 320 269 294 298 40 304 246 234 219 245 209 202 186 207 210 167 255 227 229 236 212 218 232 213 229 231 200 192
356 346 348 4 43 26 1 317 302 306 333 289 270 271 287 309 280 299 246 234 254 268 259 206 278 253 258 277 194 220 219 206 216 206 243 277 301 295 205 204 216 227 216 163 177
346 312 350 24 54 356 330 305 279 321 330 307 282 274 301 301 312 271 287 266 292 271 232 227 241 286 252 160 203 198 212 225 239 268 238 253 359 5 207 188 217 213 188 148 154
357 340 357 50 90 33 355 328 330 325 308 314 283 286 290 297 285 275 280 302 300 273 251 226 210 226 255 316 89 253 193 208 219 229 226 241 310 351 6 177 192 180 157 148 151
18 42 3 336 358 339 316 296 331 348 307 309 281 274 317 288 298 263 298 301 300 303 295 216 247 221 246 260 253 258 233 220 205 222 228 269 261 346 329 319 227 152 147 148 143
25 2 341 293 303 320 346 343 316 327 275 296 256 306 313 286 279 293 306 302 276 316 275 234 278 290 265 261 234 220 240 236 222 220 242 233 262 312 309 284 177 149 146 140 133
10 359 316 290 319 310 346 331 301 320 279 248 285 303 303 312 309 295 288 280 256 271 277 264 285 293 280 296 161 220 220 204 195 206 216 217 192 14 345 50 93 122 131 130 129